Погода в Ярмолинцах

Украина / Хмельницкая область     49°11′33″N   26°50′25″E
темп.,
°C
ветер,
м/с
пор.,
м/с
влажн.,
%
обл.,
%
осадки,
мм/ч
давл.,
гПа
погр.,
м
18 апреля, вс
вс1800:00+5в0087100 0.0 102014
03:00+3ссв119199 0.0 102018
06:00+2с22946 0.0 102014
09:00+6сз117864 0.0 1019266
12:00+10с2260100 0.0 10191143
15:00+12ссв2251100 0.0 10181442
18:00+12св1247100 0.0 10171516
21:00+10св2467100 0.0 1018127
19 апреля, пн
пн1900:00+9в1172100 0.0 101715
03:00+9юз0174100 0.0 101710
06:00+8с2380100 0.0 101644
09:00+9юв0182100 0.6 1016142
12:00+9с2178100 1.1 1016488
15:00+11св4368100 1.4 10151124
18:00+9всв5883100 0.6 1015542
21:00+9всв3785100 1.9 1015351
20 апреля, вт
вт2000:00+8всв388283 0.1 1014261
03:00+5св4886100 0.1 1013175
06:00+5св3791100 0.0 1012151
09:00+7ссв4880100 0.0 1012341
12:00+10св555797 0.3 10121527
15:00+10с565964 0.6 10111221
18:00+11с665989 0.3 10101160
21:00+6св23805 0.4 101253
21 апреля, ср
ср2100:00+5ссз23875 0.0 101359
03:00+4зсз349038 0.0 101367
06:00+3зсз3390100 0.0 101453
09:00+7з2376100 0.0 1014327
12:00+11з3460100 0.6 10141035
15:00+14з464699 1.2 10131914
18:00+13з555396 0.2 10131318
21:00+9з337267 0.4 101527
22 апреля, чт
чт2200:00+9юз357479 0.2 1016110
03:00+9з227817 0.3 101622
06:00+6ююз22896 0.0 101716
09:00+10ююз33715 0.0 1017323
12:00+14юз455384 0.1 10171327
15:00+16зюз5646100 0.3 10162102
18:00+14зюз225597 1.0 1017900
21:00+11вюв337294 1.3 101737